Regional Weather Roundup
Issued by NWS

Home | Current Version | Previous Version | Graphics & Text | Print | Product List | Glossary On
Versions: 1 2 3 4 5 6 7 8 9 10 11 12 13 14 15 16 17 18 19 20 21 22 23 24 25 26 27 28 29 30 31 32 33 34 35 36 37 38 39 40 41 42 43 44 45 46 47 48 49 50
000
ASUS43 KTOP 061959
RWRKS

WEATHER ROUNDUP FOR KANSAS
NATIONAL WEATHER SERVICE GOODLAND KS
200 PM CST SAT FEB 06 2016

NOTE:  "FAIR" INDICATES FEW OR NO CLOUDS BELOW 12,000 FEET WITH NO
SIGNIFICANT WEATHER AND/OR OBSTRUCTIONS TO VISIBILITY.

KSZ001>006-013>018-027>032-041>047-062100-
NORTHWEST KANSAS

CITY           SKY/WX    TMP DP  RH WIND       PRES   REMARKS
GOODLAND       CLOUDY    41  19  41 SW21      30.15F
HAYS           SUNNY     39  21  48 SW12      30.21F WCI  32
HILL CITY      CLOUDY    42  24  49 SW15      30.18F
RUSSELL        SUNNY     39  26  59 SW14      30.21F WCI  31
$$

KSZ061>065-074>080-084>089-062100-
SOUTHWEST KANSAS

CITY           SKY/WX    TMP DP  RH WIND       PRES   REMARKS
DODGE CITY     SUNNY     49  15  25 SW14      30.24F
ELKHART          N/A     53  15  22 W7          N/A
GARDEN CITY    SUNNY     50  17  27 SW17      30.22F
GREAT BEND     SUNNY     48  25  40 SW13      30.23F
LIBERAL        SUNNY     52  18  25 S10       30.25F
$$

KSZ066>073-081>083-090>101-062100-
SOUTHEAST KANSAS

CITY           SKY/WX    TMP DP  RH WIND       PRES   REMARKS
CHANUTE        SUNNY     50  29  44 SW12      30.28F
COFFEYVILLE    SUNNY     50  28  42 VRB3      30.30F
HUTCHINSON     SUNNY     49  24  37 W16       30.27F
MEDICINE LODGE   N/A     51  21  30 MISG      30.27F
NEWTON         SUNNY     46  27  46 W12       30.28F
PARSONS        SUNNY     51  29  42 SW9       30.29F
WICHITA INTL   MOSUNNY   48  26  42 SW9       30.28F
WICHITA JABRA  SUNNY     48  26  42 SW8       30.28F
WINFIELD       SUNNY     49  28  44 SW12      30.31F
$$

KSZ007>012-019>026-033>040-048>060-102>105-062100-
NORTHEAST KANSAS

CITY           SKY/WX    TMP DP  RH WIND       PRES   REMARKS
CONCORDIA      SUNNY     46  27  47 SW15      30.20F
EMPORIA        SUNNY     48  27  44 W9        30.26F
LAWRENCE       SUNNY     48  28  46 SW14      30.25F
MANHATTAN      SUNNY     47  29  49 SW13      30.24F
OLATHE IND     LGT RAIN  47  31  53 SW9G23    30.25F
OLATHE EXE     SUNNY     46  30  53 SW9       30.24F
SALINA         SUNNY     51  26  37 SW15      30.24F
TOPEKA BILLARD SUNNY     50  28  42 W9        30.24F
TOPEKA FORBES  SUNNY     49  29  46 W10G22    30.24F
$$



USA.gov is the U.S. government's official web portal to all federal, state and local government web resources and services.